Location: Newark
(51.3318°N, 0.0053°E)
Time: 02:11:43
(UTC+00:00)

ITUPSAT 1 - Pass Details

Date: 01 July 2022
Orbit: 701 x 711 km, 98.6° (Epoch: 09 August)

Event Time Altitude Azimuth Distance (km) Brightness Sun altitude
Rises 22:28:33 0° 3° (N) 3,112 ? -12.7°
Reaches altitude 10° 22:31:49 10° 339° (NNW) 2,191 ? -12.9°
Maximum altitude 22:34:17 14° 308° (NW) 1,915 ? -13.0°
Drops below altitude 10° 22:36:45 10° 277° (W) 2,187 ? -13.2°
Sets 22:40:00 0° 253° (WSW) 3,103 ? -13.4°
